Flag for Portugal Weather past 2 weeks in Viana do Castelo, Portugal

46 °F


Feels Like: 41 °F
Forecast: 44 / 61 °F
Wind: 13 mph from Southeast

Location: Porto / Pedras Rubras

Current Time: Dec 1, 2015 at 4:27:24 AM

Latest Report: Dec 1, 2015 at 3:30 AM

Visibility: 10 mi

Pressure: 30.45 "Hg

Humidity: 71%

Dew point: 37 °F

Location of Viana do CasteloLocation

Historic Weather in Viana do Castelo — Graph


Viana do Castelo temperature yesterday

Maximum temperature yesterday: 63 °F (at 2:00 PM)
Minimum temperature yesterday: 43 °F (at 8:30 PM)
Average temperature yesterday: 50 °F

Past Weeks' High & Low Weather Summary

High66 °F (Nov 18, 12:30 PM)100% (Nov 16, 6:00 PM)30.57 "Hg (Nov 16, 6:00 PM)
Low37 °F (Nov 23, 6:00 AM)47% (Nov 23, 11:30 AM)30.01 "Hg (Nov 22, 3:00 PM)
Average53 °F85%30.34 "Hg
* Reported Nov 16 3:00 AM — Dec 1 3:00 AM, Viana do Castelo, Weather by CustomWeather, © 2015

Note: Actual official high and low records may vary slightly from our data, if they occured in-between our weather recording intervals... More about our weather records


Viana do Castelo weather history for previous 24 hours

Time TempWeatherWind HumidityBarometerVisibility
3:00 AM
Tue, Dec 1
46 °FClear.14 mph76%30.45 "Hg10 mi
2:30 AM46 °FClear.13 mph76%30.45 "Hg10 mi
2:00 AM48 °FClear.10 mph71%30.45 "Hg10 mi
1:30 AM46 °FPassing clouds.8 mph76%30.48 "HgN/A
12:30 AM48 °FClear.12 mph71%30.48 "Hg10 mi
12:00 AM48 °FClear.12 mph71%30.48 "Hg10 mi
11:30 PM
Mon, Nov 30
48 °FClear.14 mph76%30.48 "Hg10 mi
11:00 PM48 °FClear.14 mph76%30.48 "Hg10 mi
10:30 PM48 °FClear.12 mph76%30.48 "Hg10 mi
10:00 PM46 °FClear.9 mph82%30.48 "Hg10 mi
9:30 PM45 °FClear.6 mph93%30.48 "Hg10 mi
9:00 PM43 °FClear.6 mph93%30.48 "Hg10 mi
8:30 PM43 °FClear.1 mph100%30.48 "Hg6 mi
8:00 PM45 °FClear.5 mph87%30.48 "Hg10 mi
7:30 PM46 °FPassing clouds.6 mph93%30.48 "HgN/A
7:00 PM46 °FClear.3 mph93%30.48 "Hg6 mi
6:30 PM48 °FClear.2 mph94%30.48 "Hg6 mi
6:00 PM50 °FClear.2 mph94%30.48 "Hg6 mi
5:30 PM52 °FClear.2 mph88%30.48 "Hg4 mi
5:00 PM54 °FClear.3 mph82%30.48 "Hg3 mi
4:30 PM55 °FSunny.5 mph77%30.48 "Hg10 mi
4:00 PM61 °FPassing clouds.6 mph52%30.48 "HgN/A
3:30 PM61 °FPassing clouds.5 mph55%30.48 "HgN/A
3:00 PM61 °FPassing clouds.7 mph55%30.48 "HgN/A
2:30 PM61 °FPassing clouds.3 mph55%30.51 "HgN/A
2:00 PM63 °FSunny.5 mph52%30.51 "Hg10 mi
1:30 PM61 °FPassing clouds.5 mph48%30.51 "HgN/A
1:00 PM61 °FPassing clouds.6 mph52%30.54 "HgN/A
12:30 PM61 °FPassing clouds.7 mph52%30.54 "HgN/A
12:00 PM57 °FPassing clouds.8 mph63%30.54 "HgN/A
11:30 AM57 °FPassing clouds.6 mph59%30.54 "HgN/A
11:00 AM55 °FPassing clouds.7 mph63%30.57 "HgN/A
10:30 AM52 °FPassing clouds.10 mph67%30.57 "HgN/A
10:00 AM52 °FPassing clouds.12 mph67%30.54 "HgN/A
9:30 AM48 °FPassing clouds.9 mph71%30.57 "HgN/A
9:00 AM48 °FPassing clouds.7 mph71%30.54 "HgN/A
8:30 AM46 °FSunny.13 mph76%30.54 "Hg10 mi
8:00 AM45 °FSunny.13 mph81%30.54 "Hg10 mi
7:00 AM45 °FClear.13 mph81%30.51 "Hg10 mi
6:30 AM45 °FPassing clouds.10 mph81%30.51 "HgN/A
6:00 AM45 °FClear.12 mph81%30.51 "Hg10 mi
5:30 AM45 °FClear.9 mph81%30.51 "Hg10 mi
5:00 AM46 °FClear.12 mph76%30.51 "Hg10 mi
4:30 AM46 °FClear.13 mph76%30.51 "Hg10 mi
Weather by CustomWeather, © 2015

See weather overviewHow to use our weather pages